| time (UTC) | temp C | wind direction | speed KPH | gust KPH | rain 1hr cm | rain 24hr cm | rain mn cm | humidity % | barometer mb |
| 20260906133800 | 28 | 237 | 3.2 | 8.0 | 0.00 | 0.00 | 0.00 | 87 | 1013.0 |
| 20260906133255 | 28 | 238 | 0.0 | 8.0 | 0.00 | 0.00 | 0.00 | 88 | 1013.1 |
| 20260906132751 | 27 | 249 | 4.8 | 9.7 | 0.00 | 0.00 | 0.00 | 88 | 1013.1 |
| 20260906132246 | 27 | 241 | 4.8 | 8.0 | 0.00 | 0.00 | 0.00 | 88 | 1013.2 |
| 20260906131742 | 27 | 220 | 4.8 | 11.3 | 0.00 | 0.00 | 0.00 | 88 | 1013.3 |
| 20260906131242 | 28 | 235 | 6.4 | 11.3 | 0.00 | 0.00 | 0.00 | 87 | 1013.2 |
| 20260906130737 | 28 | 228 | 4.8 | 11.3 | 0.00 | 0.00 | 0.00 | 87 | 1013.4 |
| 20260906130232 | 27 | 205 | 3.2 | 4.8 | 0.00 | 0.00 | 0.00 | 89 | 1013.3 |
| 20260906125731 | 27 | 230 | 3.2 | 9.7 | 0.00 | 0.00 | 0.00 | 90 | 1013.2 |
| 20260906125229 | 27 | 219 | 3.2 | 8.0 | 0.00 | 0.00 | 0.00 | 91 | 1013.2 |
| 20260906124724 | 26 | 231 | 6.4 | 11.3 | 0.00 | 0.00 | 0.00 | 91 | 1013.1 |
| 20260906124220 | 26 | 3 | 1.6 | 11.3 | 0.00 | 0.00 | 0.00 | 91 | 1013.1 |
| 20260906123718 | 25 | 244 | 6.4 | 11.3 | 0.00 | 0.00 | 0.00 | 91 | 1013.1 |
| 20260906123214 | 25 | 226 | 3.2 | 9.7 | 0.00 | 0.00 | 0.00 | 91 | 1013.1 |
| 20260906122713 | 25 | 243 | 3.2 | 8.0 | 0.00 | 0.00 | 0.00 | 91 | 1013.1 |
| 20260906122208 | 25 | 193 | 0.0 | 8.0 | 0.00 | 0.00 | 0.00 | 91 | 1012.8 |
| 20260906121705 | 25 | 247 | 4.8 | 6.4 | 0.00 | 0.00 | 0.00 | 91 | 1013.0 |
| 20260906121201 | 25 | 250 | 1.6 | 6.4 | 0.00 | 0.00 | 0.00 | 91 | 1012.8 |
| 20260906120657 | 25 | 254 | 3.2 | 4.8 | 0.00 | 0.00 | 0.00 | 91 | 1013.0 |
| 20260906120153 | 25 | 234 | 3.2 | 6.4 | 0.00 | 0.00 | 0.00 | 91 | 1013.1 |
| 20260906115648 | 24 | 289 | 0.0 | 3.2 | 0.00 | 0.00 | 0.00 | 91 | 1013.3 |
| 20260906115144 | 24 | 320 | 0.0 | 3.2 | 0.00 | 0.00 | 0.00 | 91 | 1013.3 |
| 20260906114643 | 24 | 300 | 0.0 | 0.0 | 0.00 | 0.00 | 0.00 | 91 | 1013.4 |
| 20260906114138 | 24 | 278 | 0.0 | 3.2 | 0.00 | 0.00 | 0.00 | 91 | 1013.3 |
| 20260906113637 | 24 | 269 | 0.0 | 3.2 | 0.00 | 0.00 | 0.00 | 91 | 1013.3 |
| 20260906113132 | 24 | 275 | 3.2 | 3.2 | 0.00 | 0.00 | 0.00 | 91 | 1013.4 |
| 20260906112631 | 24 | 283 | 0.0 | 1.6 | 0.00 | 0.00 | 0.00 | 91 | 1013.2 |
| 20260906112129 | 24 | 165 | 0.0 | 1.6 | 0.00 | 0.00 | 0.00 | 91 | 1013.0 |
| 20260906111627 | 24 | 267 | 0.0 | 3.2 | 0.00 | 0.00 | 0.00 | 91 | 1013.0 |
| 20260906111117 | 24 | 307 | 0.0 | 1.6 | 0.00 | 0.00 | 0.00 | 91 | 1012.9 |
| 20260906110611 | 24 | 172 | 0.0 | 1.6 | 0.00 | 0.00 | 0.00 | 91 | 1012.8 |
| 20260906110106 | 24 | 289 | 0.0 | 3.2 | 0.00 | 0.00 | 0.00 | 91 | 1012.6 |
| 20260906105601 | 24 | 213 | 0.0 | 3.2 | 0.00 | 0.00 | 0.00 | 91 | 1012.4 |
| 20260906105057 | 24 | 280 | 1.6 | 1.6 | 0.00 | 0.00 | 0.00 | 91 | 1012.4 |
| 20260906104556 | 24 | 318 | 0.0 | 3.2 | 0.00 | 0.00 | 0.00 | 91 | 1012.2 |
| 20260906104050 | 24 | 289 | 0.0 | 1.6 | 0.00 | 0.00 | 0.00 | 91 | 1012.2 |
| 20260906103548 | 24 | 220 | 0.0 | 3.2 | 0.00 | 0.00 | 0.00 | 91 | 1012.0 |
| 20260906103043 | 25 | 102 | 0.0 | 3.2 | 0.00 | 0.00 | 0.00 | 91 | 1012.0 |
| 20260906102537 | 25 | 209 | 0.0 | 1.6 | 0.00 | 0.00 | 0.00 | 91 | 1012.0 |
| 20260906102032 | 25 | 240 | 0.0 | 6.4 | 0.00 | 0.00 | 0.00 | 91 | 1012.0 |
| 20260906101527 | 25 | 304 | 1.6 | 3.2 | 0.00 | 0.00 | 0.00 | 91 | 1012.0 |
| 20260906101022 | 25 | 260 | 0.0 | 3.2 | 0.00 | 0.00 | 0.00 | 91 | 1012.0 |
| 20260906100518 | 25 | 228 | 0.0 | 4.8 | 0.00 | 0.00 | 0.00 | 91 | 1012.1 |
| 20260906100012 | 25 | 243 | 0.0 | 1.6 | 0.00 | 0.00 | 0.00 | 91 | 1012.0 |
| 20260906095507 | 25 | 11 | 0.0 | 6.4 | 0.00 | 0.00 | 0.00 | 91 | 1012.0 |
| 20260906095003 | 25 | 7 | 1.6 | 8.0 | 0.00 | 0.00 | 0.00 | 91 | 1012.1 |
| 20260906094501 | 25 | 243 | 1.6 | 14.5 | 0.00 | 0.00 | 0.00 | 91 | 1012.0 |
| 20260906093957 | 25 | 247 | 3.2 | 6.4 | 0.00 | 0.00 | 0.00 | 91 | 1012.0 |
| 20260906093454 | 25 | 223 | 3.2 | 4.8 | 0.00 | 0.00 | 0.00 | 91 | 1011.8 |
| 20260906092953 | 25 | 261 | 1.6 | 4.8 | 0.00 | 0.00 | 0.00 | 91 | 1012.0 |
| 20260906092453 | 25 | 237 | 3.2 | 4.8 | 0.00 | 0.00 | 0.00 | 91 | 1012.0 |
| 20260906091948 | 25 | 254 | 0.0 | 3.2 | 0.00 | 0.00 | 0.00 | 91 | 1011.8 |
| 20260906091444 | 25 | 289 | 1.6 | 3.2 | 0.00 | 0.00 | 0.00 | 91 | 1011.9 |
| 20260906090941 | 25 | 245 | 3.2 | 3.2 | 0.00 | 0.00 | 0.00 | 91 | 1012.1 |
| 20260906090436 | 25 | 180 | 0.0 | 3.2 | 0.00 | 0.00 | 0.00 | 91 | 1012.1 |
| 20260906085935 | 25 | 282 | 0.0 | 3.2 | 0.00 | 0.00 | 0.00 | 91 | 1012.0 |
| 20260906085435 | 25 | 282 | 0.0 | 4.8 | 0.00 | 0.00 | 0.00 | 91 | 1011.8 |
| 20260906084934 | 25 | 311 | 0.0 | 1.6 | 0.00 | 0.00 | 0.00 | 91 | 1011.7 |
| 20260906084429 | 25 | 282 | 1.6 | 1.6 | 0.00 | 0.00 | 0.00 | 91 | 1011.9 |
| 20260906083928 | 25 | 197 | 0.0 | 1.6 | 0.00 | 0.00 | 0.00 | 91 | 1011.7 |
| 20260906083424 | 25 | 281 | 0.0 | 3.2 | 0.00 | 0.00 | 0.00 | 91 | 1011.8 |
| 20260906082923 | 25 | 132 | 0.0 | 3.2 | 0.00 | 0.00 | 0.00 | 91 | 1011.9 |
| 20260906082418 | 25 | 127 | 0.0 | 1.6 | 0.00 | 0.00 | 0.00 | 91 | 1011.8 |
| 20260906081914 | 25 | 227 | 0.0 | 1.6 | 0.00 | 0.00 | 0.00 | 91 | 1011.6 |
| 20260906081409 | 25 | 199 | 0.0 | 3.2 | 0.00 | 0.00 | 0.00 | 91 | 1011.7 |
| 20260906080905 | 25 | 221 | 1.6 | 8.0 | 0.00 | 0.00 | 0.00 | 91 | 1011.8 |
| 20260906080402 | 25 | 215 | 3.2 | 6.4 | 0.00 | 0.00 | 0.00 | 91 | 1011.8 |
| 20260906075901 | 25 | 222 | 3.2 | 4.8 | 0.00 | 0.00 | 0.00 | 91 | 1011.7 |
| 20260906075356 | 25 | 240 | 0.0 | 3.2 | 0.00 | 0.00 | 0.00 | 91 | 1011.9 |
| 20260906074851 | 25 | 154 | 0.0 | 3.2 | 0.00 | 0.00 | 0.00 | 91 | 1011.9 |
| 20260906074345 | 25 | 215 | 0.0 | 4.8 | 0.00 | 0.00 | 0.00 | 91 | 1011.8 |
| 20260906073844 | 26 | 235 | 3.2 | 4.8 | 0.00 | 0.00 | 0.00 | 91 | 1012.0 |
| 20260906073339 | 26 | 232 | 4.8 | 8.0 | 0.00 | 0.00 | 0.00 | 91 | 1011.8 |
| 20260906072836 | 26 | 172 | 0.0 | 4.8 | 0.00 | 0.00 | 0.00 | 91 | 1011.9 |
| 20260906072331 | 26 | 243 | 1.6 | 6.4 | 0.00 | 0.00 | 0.00 | 91 | 1011.9 |
| 20260906071827 | 26 | 247 | 3.2 | 8.0 | 0.00 | 0.00 | 0.00 | 91 | 1011.9 |
| 20260906071327 | 26 | 238 | 4.8 | 8.0 | 0.00 | 0.00 | 0.00 | 91 | 1012.1 |
| 20260906070823 | 26 | 229 | 4.8 | 6.4 | 0.00 | 0.00 | 0.00 | 91 | 1012.1 |
| 20260906070320 | 26 | 269 | 0.0 | 1.6 | 0.00 | 0.00 | 0.00 | 91 | 1012.0 |
| 20260906065820 | 26 | 253 | 1.6 | 4.8 | 0.00 | 0.00 | 0.00 | 91 | 1012.0 |
| 20260906065315 | 26 | 257 | 0.0 | 4.8 | 0.00 | 0.00 | 0.00 | 91 | 1011.9 |
| 20260906064810 | 26 | 246 | 1.6 | 4.8 | 0.00 | 0.00 | 0.00 | 91 | 1012.0 |
| 20260906064306 | 25 | 197 | 1.6 | 4.8 | 0.00 | 0.00 | 0.00 | 91 | 1011.9 |
| 20260906063801 | 25 | 14 | 0.0 | 3.2 | 0.00 | 0.00 | 0.00 | 91 | 1011.9 |
| 20260906063256 | 25 | 254 | 6.4 | 8.0 | 0.00 | 0.00 | 0.00 | 91 | 1011.9 |
| 20260906062751 | 25 | 227 | 0.0 | 4.8 | 0.00 | 0.00 | 0.00 | 91 | 1012.1 |
| 20260906062250 | 25 | 231 | 0.0 | 3.2 | 0.00 | 0.00 | 0.00 | 91 | 1012.3 |
| 20260906061746 | 26 | 139 | 0.0 | 1.6 | 0.00 | 0.00 | 0.00 | 91 | 1012.2 |
| 20260906061243 | 26 | 254 | 0.0 | 4.8 | 0.00 | 0.00 | 0.00 | 91 | 1012.2 |
| 20260906060737 | 26 | 258 | 1.6 | 4.8 | 0.00 | 0.00 | 0.00 | 91 | 1012.4 |
| 20260906060235 | 26 | 220 | 0.0 | 4.8 | 0.00 | 0.00 | 0.00 | 91 | 1012.3 |
| 20260906055730 | 26 | 219 | 4.8 | 8.0 | 0.00 | 0.00 | 0.00 | 91 | 1012.2 |
| 20260906055220 | 26 | 278 | 0.0 | 6.4 | 0.00 | 0.00 | 0.00 | 91 | 1012.4 |
| 20260906054716 | 26 | 287 | 1.6 | 4.8 | 0.00 | 0.00 | 0.00 | 91 | 1012.5 |
| 20260906054216 | 26 | 298 | 0.0 | 3.2 | 0.00 | 0.00 | 0.00 | 91 | 1012.6 |
| 20260906053712 | 26 | 236 | 1.6 | 8.0 | 0.00 | 0.00 | 0.00 | 91 | 1012.5 |
| 20260906053208 | 26 | 235 | 0.0 | 4.8 | 0.00 | 0.00 | 0.00 | 91 | 1012.6 |
| 20260906052702 | 26 | 271 | 0.0 | 4.8 | 0.00 | 0.00 | 0.00 | 91 | 1012.5 |
| 20260906052159 | 26 | 325 | 0.0 | 3.2 | 0.00 | 0.00 | 0.00 | 91 | 1012.8 |
| 20260906051656 | 26 | 254 | 0.0 | 6.4 | 0.00 | 0.00 | 0.00 | 91 | 1012.7 |
| 20260906051155 | 26 | 235 | 1.6 | 4.8 | 0.00 | 0.00 | 0.00 | 91 | 1012.7 |
| 20260906050651 | 26 | 325 | 0.0 | 3.2 | 0.00 | 0.00 | 0.00 | 91 | 1012.9 |
| 20260906050146 | 26 | 22 | 0.0 | 4.8 | 0.00 | 0.00 | 0.00 | 91 | 1012.7 |
| 20260906045644 | 26 | 236 | 0.0 | 3.2 | 0.00 | 0.00 | 0.00 | 91 | 1012.6 |
| 20260906045140 | 26 | 215 | 0.0 | 3.2 | 0.00 | 0.00 | 0.00 | 91 | 1012.7 |
| 20260906044636 | 26 | 311 | 0.0 | 3.2 | 0.00 | 0.00 | 0.00 | 91 | 1012.8 |
| 20260906044131 | 25 | 247 | 0.0 | 3.2 | 0.00 | 0.00 | 0.00 | 91 | 1012.6 |
| 20260906043627 | 25 | 222 | 0.0 | 3.2 | 0.00 | 0.00 | 0.00 | 91 | 1012.7 |
| 20260906043122 | 25 | 12 | 0.0 | 3.2 | 0.00 | 0.00 | 0.00 | 91 | 1012.6 |
| 20260906042621 | 25 | 294 | 0.0 | 1.6 | 0.00 | 0.00 | 0.00 | 91 | 1012.6 |
| 20260906042115 | 25 | 215 | 0.0 | 0.0 | 0.00 | 0.00 | 0.00 | 91 | 1012.7 |
| 20260906041612 | 25 | 311 | 0.0 | 1.6 | 0.00 | 0.00 | 0.00 | 91 | 1012.8 |
| 20260906041106 | 25 | 318 | 0.0 | 0.0 | 0.00 | 0.00 | 0.00 | 91 | 1012.6 |
| 20260906040601 | 25 | 318 | 0.0 | 0.0 | 0.00 | 0.00 | 0.00 | 91 | 1012.8 |
| 20260906040057 | 25 | 352 | 0.0 | 0.0 | 0.00 | 0.00 | 0.00 | 91 | 1013.1 |
| 20260906035552 | 25 | 352 | 0.0 | 0.0 | 0.00 | 0.03 | 0.03 | 91 | 1013.0 |
| 20260906035048 | 26 | 47 | 0.0 | 1.6 | 0.00 | 0.03 | 0.03 | 91 | 1013.0 |
| 20260906034548 | 26 | 321 | 0.0 | 1.6 | 0.00 | 0.03 | 0.03 | 91 | 1012.8 |
| 20260906034042 | 26 | 352 | 0.0 | 0.0 | 0.00 | 0.03 | 0.03 | 91 | 1012.9 |
| 20260906033538 | 26 | 345 | 0.0 | 1.6 | 0.00 | 0.03 | 0.03 | 91 | 1013.1 |
| 20260906033033 | 26 | 269 | 0.0 | 1.6 | 0.00 | 0.03 | 0.03 | 91 | 1013.1 |
| 20260906032530 | 26 | 278 | 0.0 | 1.6 | 0.00 | 0.03 | 0.03 | 91 | 1013.5 |
| 20260906032030 | 26 | 307 | 0.0 | 0.0 | 0.00 | 0.03 | 0.03 | 91 | 1013.4 |
| 20260906031526 | 26 | 307 | 0.0 | 1.6 | 0.00 | 0.03 | 0.03 | 91 | 1013.6 |
| 20260906031021 | 26 | 254 | 0.0 | 1.6 | 0.00 | 0.03 | 0.03 | 91 | 1013.6 |
| 20260906030520 | 26 | 300 | 0.0 | 0.0 | 0.00 | 0.03 | 0.03 | 91 | 1013.5 |
| 20260906030020 | 26 | 300 | 0.0 | 0.0 | 0.00 | 0.03 | 0.03 | 91 | 1013.4 |
| 20260906025520 | 26 | 326 | 0.0 | 1.6 | 0.00 | 0.03 | 0.03 | 91 | 1013.5 |
| 20260906025018 | 26 | 294 | 0.0 | 0.0 | 0.00 | 0.03 | 0.03 | 91 | 1013.4 |
| 20260906024514 | 26 | 294 | 0.0 | 1.6 | 0.00 | 0.03 | 0.03 | 91 | 1013.5 |
| 20260906024014 | 26 | 336 | 0.0 | 1.6 | 0.00 | 0.03 | 0.03 | 91 | 1013.4 |
| 20260906023510 | 26 | 289 | 0.0 | 0.0 | 0.00 | 0.03 | 0.03 | 91 | 1013.5 |
| 20260906023005 | 26 | 282 | 0.0 | 1.6 | 0.00 | 0.03 | 0.03 | 91 | 1013.5 |
| 20260906022500 | 26 | 324 | 0.0 | 0.0 | 0.00 | 0.03 | 0.03 | 91 | 1013.5 |
| 20260906021955 | 26 | 324 | 0.0 | 0.0 | 0.00 | 0.03 | 0.03 | 91 | 1013.5 |
| 20260906021450 | 26 | 307 | 0.0 | 1.6 | 0.00 | 0.03 | 0.03 | 91 | 1013.2 |
| 20260906020950 | 26 | 336 | 0.0 | 1.6 | 0.00 | 0.03 | 0.03 | 91 | 1013.1 |
| 20260906020444 | 26 | 22 | 0.0 | 0.0 | 0.00 | 0.03 | 0.03 | 91 | 1013.3 |
| 20260906015938 | 26 | 22 | 0.0 | 1.6 | 0.00 | 0.03 | 0.03 | 91 | 1013.3 |
| 20260906015432 | 26 | 294 | 0.0 | 1.6 | 0.00 | 0.03 | 0.03 | 91 | 1013.1 |
| 20260906014927 | 26 | 318 | 0.0 | 0.0 | 0.00 | 0.03 | 0.03 | 91 | 1013.0 |
| 20260906014426 | 26 | 310 | 0.0 | 1.6 | 0.00 | 0.03 | 0.03 | 91 | 1013.0 |
| 20260906013922 | 26 | 307 | 0.0 | 1.6 | 0.00 | 0.03 | 0.03 | 91 | 1013.0 |
| 20260906013417 | 26 | 289 | 0.0 | 0.0 | 0.00 | 0.03 | 0.03 | 91 | 1013.0 |
| 20260906012913 | 26 | 289 | 0.0 | 1.6 | 0.00 | 0.03 | 0.03 | 91 | 1012.9 |
| 20260906012408 | 26 | 336 | 0.0 | 0.0 | 0.00 | 0.03 | 0.03 | 91 | 1012.7 |
| 20260906011907 | 26 | 282 | 0.0 | 1.6 | 0.00 | 0.03 | 0.03 | 91 | 1012.6 |
| 20260906011402 | 26 | 22 | 0.0 | 0.0 | 0.00 | 0.03 | 0.03 | 91 | 1012.6 |
| 20260906010858 | 26 | 307 | 0.0 | 1.6 | 0.00 | 0.03 | 0.03 | 91 | 1012.4 |
| 20260906010353 | 26 | 294 | 0.0 | 1.6 | 0.00 | 0.03 | 0.03 | 91 | 1012.5 |
| 20260906005849 | 26 | 345 | 0.0 | 1.6 | 0.00 | 0.03 | 0.03 | 91 | 1012.3 |
| 20260906005348 | 26 | 0 | 0.0 | 0.0 | 0.00 | 0.03 | 0.03 | 91 | 1012.3 |
| 20260906004847 | 26 | 0 | 0.0 | 0.0 | 0.00 | 0.03 | 0.03 | 91 | 1012.2 |
| 20260906004347 | 26 | 318 | 0.0 | 1.6 | 0.00 | 0.03 | 0.03 | 91 | 1012.2 |
| 20260906003842 | 26 | 352 | 0.0 | 1.6 | 0.00 | 0.03 | 0.03 | 91 | 1012.2 |
| 20260906003337 | 26 | 318 | 0.0 | 0.0 | 0.00 | 0.03 | 0.03 | 91 | 1012.0 |
| 20260906002833 | 27 | 318 | 0.0 | 0.0 | 0.00 | 0.03 | 0.03 | 91 | 1012.1 |
| 20260906002332 | 27 | 318 | 0.0 | 0.0 | 0.00 | 0.03 | 0.03 | 91 | 1012.2 |
| 20260906001828 | 27 | 350 | 0.0 | 3.2 | 0.00 | 0.03 | 0.03 | 91 | 1012.0 |
| 20260906001323 | 27 | 282 | 0.0 | 3.2 | 0.00 | 0.03 | 0.03 | 90 | 1011.9 |
| 20260906000818 | 27 | 318 | 0.0 | 0.0 | 0.00 | 0.03 | 0.03 | 90 | 1011.9 |
| 20260906000313 | 27 | 306 | 0.0 | 1.6 | 0.00 | 0.03 | 0.03 | 90 | 1011.8 |
| 20260905235808 | 28 | 318 | 0.0 | 3.2 | 0.00 | 0.03 | 0.03 | 89 | 1011.6 |
| 20260905235306 | 28 | 14 | 0.0 | 1.6 | 0.00 | 0.03 | 0.03 | 89 | 1011.6 |
| 20260905234758 | 28 | 35 | 0.0 | 3.2 | 0.00 | 0.03 | 0.03 | 89 | 1011.8 |
| 20260905234253 | 28 | 60 | 0.0 | 0.0 | 0.00 | 0.03 | 0.03 | 89 | 1011.7 |
| 20260905233748 | 28 | 300 | 0.0 | 0.0 | 0.00 | 0.03 | 0.03 | 89 | 1012.0 |
| 20260905233248 | 28 | 23 | 0.0 | 4.8 | 0.00 | 0.03 | 0.03 | 88 | 1012.0 |
| 20260905232747 | 29 | 53 | 0.0 | 3.2 | 0.00 | 0.03 | 0.03 | 87 | 1011.8 |
| 20260905232244 | 29 | 336 | 0.0 | 0.0 | 0.00 | 0.03 | 0.03 | 87 | 1012.0 |
| 20260905231739 | 29 | 345 | 0.0 | 0.0 | 0.00 | 0.03 | 0.03 | 85 | 1011.8 |
| 20260905231234 | 30 | 345 | 0.0 | 1.6 | 0.00 | 0.03 | 0.03 | 85 | 1011.8 |
| 20260905230731 | 30 | 0 | 0.0 | 3.2 | 0.00 | 0.03 | 0.03 | 83 | 1011.7 |
| 20260905230228 | 30 | 254 | 0.0 | 3.2 | 0.00 | 0.03 | 0.03 | 83 | 1011.9 |
| 20260905225727 | 30 | 89 | 0.0 | 3.2 | 0.00 | 0.03 | 0.03 | 81 | 1012.2 |
| 20260905225223 | 31 | 231 | 0.0 | 0.0 | 0.00 | 0.03 | 0.03 | 79 | 1012.1 |
| 20260905224721 | 31 | 231 | 0.0 | 3.2 | 0.00 | 0.03 | 0.03 | 79 | 1012.1 |
| 20260905224217 | 31 | 254 | 0.0 | 3.2 | 0.00 | 0.03 | 0.03 | 78 | 1012.1 |
| 20260905223713 | 31 | 254 | 0.0 | 3.2 | 0.00 | 0.03 | 0.03 | 79 | 1012.2 |
| 20260905223210 | 31 | 220 | 0.0 | 4.8 | 0.00 | 0.03 | 0.03 | 78 | 1012.2 |
| 20260905222705 | 31 | 219 | 0.0 | 3.2 | 0.00 | 0.03 | 0.03 | 78 | 1012.2 |
| 20260905222205 | 32 | 268 | 0.0 | 4.8 | 0.00 | 0.03 | 0.03 | 75 | 1012.3 |
| 20260905221700 | 33 | 268 | 0.0 | 3.2 | 0.00 | 0.03 | 0.03 | 73 | 1012.2 |
| 20260905221157 | 33 | 254 | 0.0 | 3.2 | 0.00 | 0.03 | 0.03 | 69 | 1012.2 |
| 20260905220652 | 33 | 237 | 4.8 | 8.0 | 0.00 | 0.03 | 0.03 | 67 | 1012.3 |
| 20260905220149 | 33 | 221 | 0.0 | 3.2 | 0.00 | 0.03 | 0.03 | 75 | 1012.3 |
| 20260905215643 | 33 | 202 | 0.0 | 1.6 | 0.00 | 0.03 | 0.03 | 71 | 1012.2 |
| 20260905215139 | 33 | 254 | 0.0 | 3.2 | 0.00 | 0.03 | 0.03 | 75 | 1012.3 |
| 20260905214635 | 33 | 254 | 0.0 | 3.2 | 0.00 | 0.03 | 0.03 | 73 | 1012.4 |
| 20260905214134 | 32 | 239 | 1.6 | 3.2 | 0.00 | 0.03 | 0.03 | 74 | 1012.5 |
| 20260905213630 | 32 | 249 | 1.6 | 3.2 | 0.00 | 0.03 | 0.03 | 77 | 1012.4 |
| 20260905213125 | 32 | 218 | 0.0 | 3.2 | 0.00 | 0.03 | 0.03 | 72 | 1012.2 |
| 20260905212620 | 32 | 217 | 0.0 | 3.2 | 0.00 | 0.03 | 0.03 | 69 | 1012.4 |
| 20260905212120 | 32 | 242 | 3.2 | 6.4 | 0.00 | 0.03 | 0.03 | 70 | 1012.4 |
| 20260905211615 | 33 | 224 | 4.8 | 8.0 | 0.00 | 0.03 | 0.03 | 67 | 1012.5 |
| 20260905211110 | 35 | 311 | 0.0 | 8.0 | 0.00 | 0.03 | 0.03 | 62 | 1012.6 |
| 20260905210607 | 35 | 249 | 4.8 | 11.3 | 0.00 | 0.03 | 0.03 | 66 | 1012.4 |
| 20260905205600 | 34 | 208 | 1.6 | 6.4 | 0.00 | 0.03 | 0.03 | 69 | 1012.6 |
| 20260905205054 | 34 | 248 | 3.2 | 6.4 | 0.00 | 0.03 | 0.03 | 66 | 1012.4 |
| 20260905204549 | 33 | 220 | 4.8 | 11.3 | 0.00 | 0.03 | 0.03 | 68 | 1012.5 |
| 20260905204044 | 34 | 234 | 4.8 | 12.9 | 0.00 | 0.03 | 0.03 | 66 | 1012.4 |
| 20260905203544 | 33 | 189 | 0.0 | 14.5 | 0.00 | 0.03 | 0.03 | 67 | 1012.4 |
| 20260905203039 | 32 | 223 | 3.2 | 9.7 | 0.00 | 0.03 | 0.03 | 70 | 1012.4 |
| 20260905202534 | 33 | 257 | 3.2 | 11.3 | 0.00 | 0.03 | 0.03 | 68 | 1012.4 |
| 20260905202030 | 33 | 242 | 3.2 | 14.5 | 0.00 | 0.03 | 0.03 | 70 | 1012.3 |
| 20260905201526 | 34 | 225 | 9.7 | 17.7 | 0.00 | 0.03 | 0.03 | 66 | 1012.4 |
| 20260905201024 | 34 | 224 | 8.0 | 14.5 | 0.00 | 0.03 | 0.03 | 66 | 1012.4 |
| 20260905200520 | 33 | 231 | 8.0 | 17.7 | 0.00 | 0.03 | 0.03 | 66 | 1012.3 |
| 20260905200020 | 34 | 254 | 6.4 | 14.5 | 0.00 | 0.03 | 0.03 | 67 | 1012.4 |
| 20260905195515 | 34 | 279 | 6.4 | 12.9 | 0.00 | 0.03 | 0.03 | 66 | 1012.3 |
| 20260905195010 | 33 | 225 | 1.6 | 11.3 | 0.00 | 0.03 | 0.03 | 68 | 1012.5 |
| 20260905194509 | 34 | 227 | 8.0 | 12.9 | 0.00 | 0.03 | 0.03 | 66 | 1012.4 |
| 20260905194010 | 33 | 214 | 4.8 | 12.9 | 0.00 | 0.03 | 0.03 | 68 | 1012.4 |
| 20260905193510 | 35 | 316 | 4.8 | 8.0 | 0.00 | 0.03 | 0.03 | 66 | 1012.5 |
| 20260905193005 | 33 | 237 | 4.8 | 11.3 | 0.00 | 0.03 | 0.03 | 72 | 1012.6 |
| 20260905192500 | 32 | 221 | 4.8 | 16.1 | 0.00 | 0.03 | 0.03 | 71 | 1012.9 |
| 20260905191956 | 33 | 271 | 1.6 | 9.7 | 0.00 | 0.03 | 0.03 | 69 | 1013.0 |
| 20260905191450 | 32 | 6 | 3.2 | 6.4 | 0.00 | 0.03 | 0.03 | 71 | 1013.1 |
| 20260905190949 | 33 | 241 | 0.0 | 11.3 | 0.00 | 0.03 | 0.03 | 70 | 1013.3 |
| 20260905190447 | 32 | 209 | 4.8 | 11.3 | 0.00 | 0.03 | 0.03 | 72 | 1013.2 |
| 20260905185946 | 32 | 226 | 6.4 | 29.0 | 0.00 | 0.03 | 0.03 | 71 | 1013.1 |
| 20260905185441 | 33 | 228 | 3.2 | 8.0 | 0.00 | 0.03 | 0.03 | 70 | 1013.1 |
| 20260905184940 | 33 | 241 | 4.8 | 11.3 | 0.00 | 0.03 | 0.03 | 70 | 1013.1 |
| 20260905184440 | 32 | 173 | 1.6 | 8.0 | 0.00 | 0.03 | 0.03 | 73 | 1013.2 |
| 20260905183938 | 33 | 318 | 3.2 | 6.4 | 0.00 | 0.03 | 0.03 | 70 | 1013.2 |
| 20260905183433 | 33 | 329 | 3.2 | 4.8 | 0.00 | 0.03 | 0.03 | 70 | 1013.2 |
| 20260905182928 | 32 | 226 | 6.4 | 14.5 | 0.00 | 0.03 | 0.03 | 72 | 1013.2 |
| 20260905182427 | 33 | 233 | 6.4 | 6.4 | 0.00 | 0.03 | 0.03 | 70 | 1013.5 |
| 20260905181923 | 33 | 200 | 1.6 | 11.3 | 0.00 | 0.03 | 0.03 | 70 | 1013.4 |
| 20260905181418 | 32 | 245 | 4.8 | 8.0 | 0.00 | 0.03 | 0.03 | 73 | 1013.6 |
| 20260905180917 | 33 | 96 | 1.6 | 6.4 | 0.00 | 0.03 | 0.03 | 70 | 1013.5 |
| 20260905180413 | 32 | 238 | 8.0 | 12.9 | 0.00 | 0.03 | 0.03 | 74 | 1013.6 |
| 20260905175912 | 32 | 234 | 8.0 | 14.5 | 0.00 | 0.03 | 0.03 | 74 | 1013.5 |
| 20260905175412 | 32 | 222 | 6.4 | 9.7 | 0.00 | 0.03 | 0.03 | 72 | 1013.5 |
| 20260905174907 | 32 | 218 | 11.3 | 14.5 | 0.00 | 0.03 | 0.03 | 72 | 1013.7 |
| 20260905174403 | 33 | 12 | 1.6 | 9.7 | 0.00 | 0.03 | 0.03 | 73 | 1013.8 |
| 20260905173859 | 32 | 231 | 4.8 | 8.0 | 0.00 | 0.03 | 0.03 | 72 | 1013.9 |
| 20260905173355 | 31 | 222 | 9.7 | 16.1 | 0.00 | 0.03 | 0.03 | 75 | 1013.9 |
| 20260905172850 | 32 | 208 | 0.0 | 8.0 | 0.00 | 0.03 | 0.03 | 73 | 1014.0 |
| 20260905172347 | 32 | 23 | 6.4 | 12.9 | 0.00 | 0.03 | 0.03 | 73 | 1014.1 |
| 20260905171844 | 32 | 349 | 4.8 | 8.0 | 0.00 | 0.03 | 0.03 | 73 | 1014.1 |
| 20260905171340 | 31 | 344 | 0.0 | 8.0 | 0.00 | 0.03 | 0.03 | 77 | 1014.4 |
| 20260905170836 | 31 | 248 | 4.8 | 14.5 | 0.00 | 0.03 | 0.03 | 75 | 1014.3 |
| 20260905170332 | 31 | 233 | 3.2 | 8.0 | 0.00 | 0.03 | 0.03 | 77 | 1014.5 |
| 20260905165831 | 32 | 247 | 8.0 | 9.7 | 0.00 | 0.03 | 0.03 | 76 | 1014.7 |
| 20260905165326 | 31 | 244 | 4.8 | 11.3 | 0.00 | 0.03 | 0.03 | 77 | 1014.9 |
| 20260905164821 | 32 | 236 | 3.2 | 4.8 | 0.00 | 0.03 | 0.03 | 76 | 1014.8 |
| 20260905164316 | 31 | 230 | 6.4 | 8.0 | 0.00 | 0.03 | 0.03 | 79 | 1014.8 |
| 20260905163811 | 30 | 42 | 0.0 | 6.4 | 0.00 | 0.03 | 0.03 | 80 | 1015.0 |
| 20260905163308 | 30 | 291 | 0.0 | 9.7 | 0.00 | 0.03 | 0.03 | 82 | 1015.1 |
| 20260905162803 | 31 | 339 | 0.0 | 4.8 | 0.00 | 0.03 | 0.03 | 81 | 1015.3 |
| 20260905162305 | 31 | 22 | 3.2 | 6.4 | 0.00 | 0.03 | 0.03 | 82 | 1015.3 |
| 20260905161757 | 31 | 344 | 4.8 | 4.8 | 0.00 | 0.03 | 0.03 | 82 | 1015.3 |
| 20260905161256 | 30 | 229 | 4.8 | 4.8 | 0.00 | 0.03 | 0.03 | 84 | 1015.5 |
| 20260905160754 | 30 | 257 | 3.2 | 4.8 | 0.05 | 0.03 | 0.03 | 85 | 1015.4 |
| 20260905160249 | 30 | 15 | 0.0 | 4.8 | 0.05 | 0.03 | 0.03 | 85 | 1015.7 |
| 20260905155744 | 30 | 139 | 0.0 | 4.8 | 0.00 | 0.00 | 0.00 | 82 | 1015.7 |
| 20260905155243 | 30 | 333 | 0.0 | 8.0 | 0.00 | 0.00 | 0.00 | 82 | 1015.7 |
| 20260905154737 | 30 | 2 | 3.2 | 8.0 | 0.00 | 0.00 | 0.00 | 83 | 1015.8 |
| 20260905154233 | 29 | 177 | 3.2 | 11.3 | 0.00 | 0.00 | 0.00 | 85 | 1015.8 |
| 20260905153729 | 28 | 351 | 3.2 | 6.4 | 0.00 | 0.00 | 0.00 | 87 | 1015.8 |
| 20260905153224 | 28 | 231 | 0.0 | 6.4 | 0.00 | 0.00 | 0.00 | 89 | 1016.0 |
| 20260905152719 | 27 | 345 | 0.0 | 4.8 | 0.00 | 0.00 | 0.00 | 89 | 1015.9 |
| 20260905152218 | 27 | 229 | 4.8 | 8.0 | 0.00 | 0.00 | 0.00 | 89 | 1015.8 |
| 20260905151713 | 28 | 353 | 0.0 | 8.0 | 0.00 | 0.00 | 0.00 | 89 | 1016.0 |
| 20260905151209 | 28 | 240 | 3.2 | 11.3 | 0.00 | 0.00 | 0.00 | 89 | 1015.9 |
| 20260905150704 | 27 | 273 | 3.2 | 6.4 | 0.00 | 0.00 | 0.00 | 91 | 1015.9 |
| 20260905150203 | 27 | 4 | 1.6 | 4.8 | 0.00 | 0.00 | 0.00 | 91 | 1016.0 |
| 20260905145701 | 26 | 7 | 3.2 | 8.0 | 0.00 | 0.00 | 0.00 | 91 | 1015.9 |
| 20260905145201 | 27 | 222 | 3.2 | 6.4 | 0.00 | 0.00 | 0.00 | 91 | 1015.9 |
| 20260905144654 | 26 | 221 | 4.8 | 8.0 | 0.00 | 0.00 | 0.00 | 91 | 1015.9 |
| 20260905144149 | 26 | 213 | 4.8 | 8.0 | 0.00 | 0.00 | 0.00 | 91 | 1016.1 |
| 20260905143648 | 26 | 336 | 3.2 | 4.8 | 0.00 | 0.00 | 0.00 | 91 | 1016.0 |
| 20260905143143 | 26 | 233 | 3.2 | 6.4 | 0.00 | 0.00 | 0.00 | 91 | 1015.9 |
| 20260905142642 | 26 | 216 | 0.0 | 6.4 | 0.00 | 0.00 | 0.00 | 91 | 1015.8 |
| 20260905142137 | 26 | 247 | 3.2 | 4.8 | 0.00 | 0.00 | 0.00 | 91 | 1015.9 |
| 20260905141636 | 25 | 234 | 4.8 | 9.7 | 0.00 | 0.00 | 0.00 | 91 | 1015.8 |
| 20260905141133 | 25 | 209 | 0.0 | 6.4 | 0.00 | 0.00 | 0.00 | 91 | 1015.8 |
| 20260905140628 | 25 | 246 | 6.4 | 8.0 | 0.00 | 0.00 | 0.00 | 91 | 1015.9 |
| 20260905140127 | 25 | 234 | 1.6 | 8.0 | 0.00 | 0.00 | 0.00 | 91 | 1015.9 |
| 20260905135622 | 25 | 232 | 3.2 | 8.0 | 0.00 | 0.00 | 0.00 | 91 | 1015.8 |
| 20260905135118 | 25 | 227 | 0.0 | 6.4 | 0.00 | 0.00 | 0.00 | 91 | 1015.9 |
| 20260905134613 | 25 | 224 | 4.8 | 9.7 | 0.00 | 0.00 | 0.00 | 91 | 1015.9 |
| 20260905134111 | 25 | 224 | 4.8 | 6.4 | 0.00 | 0.00 | 0.00 | 91 | 1015.8 |